Regional Weather Roundup
Issued by NWS

Home | Current Version | Previous Version | Graphics & Text | Print | Product List | Glossary On
Versions: 1 2 3 4 5 6 7 8 9 10 11 12 13 14 15 16 17 18 19 20 21 22 23 24 25 26 27 28 29 30 31 32 33 34 35 36 37 38 39 40 41 42 43 44 45 46 47 48 49 50
000
ASUS45 KPSR 281010
RWRAZ

ARIZONA REGIONAL HOURLY WEATHER ROUNDUP
NATIONAL WEATHER SERVICE PHOENIX AZ
300 AM MST WED JAN 28 2015

NOTE: FAIR INDICATES FEW OR NO CLOUDS BELOW 12,000 FEET WITH NO
SIGNIFICANT WEATHER AND/OR OBSTRUCTIONS TO VISIBILITY.

AZZ001>003-036-281100-
NORTHWEST ARIZONA

CITY           SKY/WX    TMP DP  RH WIND       PRES   REMARKS
BULLHEAD CITY  CLEAR     52  48  87 CALM      30.21R
KINGMAN        CLEAR     39  37  92 CALM      30.24R
$$

AZZ004>008-015-016-018-281100-
NORTH CENTRAL ARIZONA

CITY           SKY/WX    TMP DP  RH WIND       PRES   REMARKS
GRAND CANYON   PTCLDY    24  22  91 CALM      30.29F
PRESCOTT       CLEAR     36  32  85 S8        30.26S WCI  30
FLAGSTAFF      FOG       27  25  92 CALM      30.29S VSB 1/2
PAYSON         CLEAR     41  39  93 CALM      30.27S
$$

AZZ009>014-017-281100-
NORTHEAST ARIZONA

CITY           SKY/WX    TMP DP  RH WIND       PRES   REMARKS
WINSLOW        CLEAR     37  34  89 NE3       30.27F
SAINT JOHNS    CLOUDY    40  34  79 SE3       30.28F
WINDOW ROCK    MOCLDY    35  30  82 CALM      30.31S
SHOW LOW         N/A     32  32 100 S3        30.32F
$$

AZZ023-281100-
GREATER PHOENIX AREA

CITY           SKY/WX    TMP DP  RH WIND       PRES   REMARKS
PHOENIX        CLEAR     57  51  80 CALM      30.14R
BUCKEYE          N/A     54  54 100 N8        30.16S
LUKE AFB       NOT AVBL
DEER VALLEY    CLEAR     54  48  80 NW5       30.15R
SCOTTSDALE     CLEAR     53  48  83 CALM      30.16R
MESA-GATEWAY   CLEAR     48  46  93 E5        30.17S
$$

AZZ027-028-281100-
SOUTHWEST MARICOPA COUNTY AND PINAL COUNTY

CITY           SKY/WX    TMP DP  RH WIND       PRES   REMARKS
CASA GRANDE    CLEAR     48  46  93 CALM      30.15F
GILA BEND      FAIR      53  51  92 NE1       30.15S
$$

AZZ503-504-507>509-281100-
SOUTHEAST ARIZONA

CITY           SKY/WX    TMP DP  RH WIND       PRES   REMARKS
TUCSON         CLEAR     50  46  86 S3        30.20S
DAVIS-MONTHAN  CLEAR     49  47  95 S6        30.18S
NOGALES        CLEAR     45  41  86 E6        30.21R
SIERRA VISTA   PTCLDY    46  39  76 SW6       30.23S
DOUGLAS        PTCLDY    44  35  70 N9        30.20F
SAFFORD        PTCLDY    45  36  70 CALM      30.18F
$$

AZZ020-021-025-026-031-281100-
SOUTHWEST ARIZONA

CITY           SKY/WX    TMP DP  RH WIND       PRES   REMARKS
YUMA           CLEAR     54  51  90 NW3       30.16F
$$

CAZ031-033-041-043-047-048-061-281100-
SOUTHERN CALIFORNIA

CITY           SKY/WX    TMP DP  RH WIND       PRES   REMARKS
DOWNTOWN L.A.  MOCLDY    58  47  66 CALM      30.18R
L.A. AIRPORT   MOCLDY    57  50  77 CALM      30.18R
SAN DIEGO      PTCLDY    57  49  74 CALM      30.16F
BURBANK        MOCLDY    53  47  79 N3        30.18R
ONTARIO        PTCLDY    53  47  79 CALM      30.19R
RIVERSIDE      PTCLDY    51  48  89 CALM      30.19S
PALM SPRINGS   PTCLDY    56  48  74 NW7       30.21S
EL CENTRO NAS  CLEAR     50  49  96 W8        30.18S
IMPERIAL       CLEAR     50  49  96 W7        30.17F
BLYTHE         CLEAR     54  53  97 W6        30.19R
NEEDLES        CLEAR     53  49  86 SW5       30.20R
$$

NVZ020-UTZ003-281100-
SOUTHERN NEVADA-UTAH

CITY           SKY/WX    TMP DP  RH WIND       PRES   REMARKS
LAS VEGAS      PTCLDY    51  44  77 SW10      30.20R
SALT LAKE CITY CLOUDY    47  34  60 S8        30.19R
$$

NMZ009-TXZ055-281100-
NEW MEXICO-WEST TEXAS

CITY           SKY/WX    TMP DP  RH WIND       PRES   REMARKS
ALBUQUERQUE    PTCLDY    35  29  78 E7        30.25S WCI  29
EL PASO        PTCLDY    45  39  79 CALM      30.19F
$$


........................KEY........................
SKY/WX - SKY CONDITION/WEATHER
TMP    - TEMPERATURE IN FAHRENHEIT
DP     - DEW POINT IN FAHRENHEIT
RH     - RELATIVE HUMIDITY IN PERCENT
WIND   - DIRECTION AND SPEED IN MILES PER HOUR (MPH)
VRB    - VARIABLE WIND DIRECTION
PRES   - MEAN SEA LEVEL PRESSURE IN INCHES OF MERCURY
         F - FALLING PRESSURE   R - RISING PRESSURE
         S - STEADY PRESSURE
VSB    - VISIBILITY IN MILES
HX     - HEAT INDEX IN FAHRENHEIT
WCI    - WIND CHILL INDEX IN FAHRENHEIT
TC     - TEMPERATURE IN CELSIUS WHICH IS ALSO KNOWN AS
         TEMPERATURE IN CENTIGRADE
AFB    - AIR FORCE BASE
         LUKE AFB IS LUKE AIR FORCE BASE
         DAVIS-MONTHAN IS DAVIS-MONTHAN AIR FORCE BASE
NAS    - NAVAL AIR STATION
         EL CENTRO NAS IS EL CENTRO NAVAL AIR STATION
N/A    - NOT AVAILABLE


USA.gov is the U.S. government's official web portal to all federal, state and local government web resources and services.